Year,Month,Day,Hour,Minute,Value (Times are PST for temperature in C)
2011,08,18,00,00,14.40
2011,08,18,00,01,14.40
2011,08,18,00,02,14.40
2011,08,18,00,03,14.40
2011,08,18,00,04,14.40
2011,08,18,00,05,14.30
2011,08,18,00,06,14.30
2011,08,18,00,07,14.30
2011,08,18,00,08,14.30
2011,08,18,00,09,14.30
2011,08,18,00,10,14.30
2011,08,18,00,11,14.30
2011,08,18,00,12,14.30
2011,08,18,00,13,14.30
2011,08,18,00,14,14.30
2011,08,18,00,15,14.30
2011,08,18,00,16,14.30
2011,08,18,00,17,14.30
2011,08,18,00,18,14.30
2011,08,18,00,19,14.20
2011,08,18,00,20,14.20
2011,08,18,00,21,14.20
2011,08,18,00,22,14.20
2011,08,18,00,23,14.20
2011,08,18,00,24,14.20
2011,08,18,00,25,14.20
2011,08,18,00,26,14.20
2011,08,18,00,27,14.10
2011,08,18,00,28,14.10
2011,08,18,00,29,14.10
2011,08,18,00,30,14.10
2011,08,18,00,31,14.10
2011,08,18,00,32,14.10
2011,08,18,00,33,14.10
2011,08,18,00,34,14.10
2011,08,18,00,35,14.10
2011,08,18,00,36,14.00
2011,08,18,00,37,14.00
2011,08,18,00,38,14.00
2011,08,18,00,39,14.00
2011,08,18,00,40,13.90
2011,08,18,00,41,13.90
2011,08,18,00,42,13.90
2011,08,18,00,43,13.90
2011,08,18,00,44,13.90
2011,08,18,00,45,13.80
2011,08,18,00,46,13.80
2011,08,18,00,47,13.80
2011,08,18,00,48,13.70
2011,08,18,00,49,13.70
2011,08,18,00,50,13.70
2011,08,18,00,51,13.70
2011,08,18,00,52,13.70
2011,08,18,00,53,13.70
2011,08,18,00,54,13.70
2011,08,18,00,55,13.70
2011,08,18,00,56,13.60
2011,08,18,00,57,13.60
2011,08,18,00,58,13.60
2011,08,18,00,59,13.60
2011,08,18,01,00,13.60
2011,08,18,01,01,13.50
2011,08,18,01,02,13.50
2011,08,18,01,03,13.50
2011,08,18,01,04,13.50
2011,08,18,01,05,13.40
2011,08,18,01,06,13.40
2011,08,18,01,07,13.40
2011,08,18,01,08,13.40
2011,08,18,01,09,13.40
2011,08,18,01,10,13.40
2011,08,18,01,11,13.40
2011,08,18,01,12,13.40
2011,08,18,01,13,13.40
2011,08,18,01,14,13.40
2011,08,18,01,15,13.30
2011,08,18,01,16,13.30
2011,08,18,01,17,13.30
2011,08,18,01,18,13.30
2011,08,18,01,19,13.30
2011,08,18,01,20,13.30
2011,08,18,01,21,13.30
2011,08,18,01,22,13.30
2011,08,18,01,23,13.30
2011,08,18,01,24,13.30
2011,08,18,01,25,13.30
2011,08,18,01,26,13.20
2011,08,18,01,27,13.20
2011,08,18,01,28,13.20
2011,08,18,01,29,13.20
2011,08,18,01,30,13.10
2011,08,18,01,31,13.10
2011,08,18,01,32,13.10
2011,08,18,01,33,13.10
2011,08,18,01,34,13.00
2011,08,18,01,35,13.00
2011,08,18,01,36,13.00
2011,08,18,01,37,13.00
2011,08,18,01,38,13.00
2011,08,18,01,39,13.00
2011,08,18,01,40,13.00
2011,08,18,01,41,12.90
2011,08,18,01,42,12.90
2011,08,18,01,43,12.90
2011,08,18,01,44,12.90
2011,08,18,01,45,12.90
2011,08,18,01,46,12.90
2011,08,18,01,47,12.90
2011,08,18,01,48,12.90
2011,08,18,01,49,12.90
2011,08,18,01,50,12.90
2011,08,18,01,51,12.90
2011,08,18,01,52,12.90
2011,08,18,01,53,12.90
2011,08,18,01,54,13.00
2011,08,18,01,55,13.00
2011,08,18,01,56,13.00
2011,08,18,01,57,13.00
2011,08,18,01,58,12.90
2011,08,18,01,59,12.90
2011,08,18,02,00,12.90
2011,08,18,02,01,12.90
2011,08,18,02,02,12.90
2011,08,18,02,03,12.90
2011,08,18,02,04,12.80
2011,08,18,02,05,12.80
2011,08,18,02,06,12.70
2011,08,18,02,07,12.70
2011,08,18,02,08,12.70
2011,08,18,02,09,12.60
2011,08,18,02,10,12.60
2011,08,18,02,11,12.60
2011,08,18,02,12,12.60
2011,08,18,02,13,12.60
2011,08,18,02,14,12.50
2011,08,18,02,15,12.50
2011,08,18,02,16,12.50
2011,08,18,02,17,12.50
2011,08,18,02,18,12.50
2011,08,18,02,19,12.50
2011,08,18,02,20,12.50
2011,08,18,02,21,12.50
2011,08,18,02,22,12.50
2011,08,18,02,23,12.50
2011,08,18,02,24,12.50
2011,08,18,02,25,12.50
2011,08,18,02,26,12.50
2011,08,18,02,27,12.50
2011,08,18,02,28,12.50
2011,08,18,02,29,12.40
2011,08,18,02,30,12.40
2011,08,18,02,31,12.40
2011,08,18,02,32,12.40
2011,08,18,02,33,12.40
2011,08,18,02,34,12.40
2011,08,18,02,35,12.30
2011,08,18,02,36,12.30
2011,08,18,02,37,12.30
2011,08,18,02,38,12.30
2011,08,18,02,39,12.30
2011,08,18,02,40,12.20
2011,08,18,02,41,12.20
2011,08,18,02,42,12.20
2011,08,18,02,43,12.20
2011,08,18,02,44,12.20
2011,08,18,02,45,12.20
2011,08,18,02,46,12.20
2011,08,18,02,47,12.10
2011,08,18,02,48,12.10
2011,08,18,02,49,12.10
2011,08,18,02,50,12.10
2011,08,18,02,51,12.00
2011,08,18,02,52,12.00
2011,08,18,02,53,12.00
2011,08,18,02,54,12.00
2011,08,18,02,55,11.90
2011,08,18,02,56,11.90
2011,08,18,02,57,11.90
2011,08,18,02,58,11.90
2011,08,18,02,59,11.90
2011,08,18,03,00,11.90
2011,08,18,03,01,11.80
2011,08,18,03,02,11.80
2011,08,18,03,03,11.80
2011,08,18,03,04,11.80
2011,08,18,03,05,11.80
2011,08,18,03,06,11.80
2011,08,18,03,07,11.80
2011,08,18,03,08,11.80
2011,08,18,03,09,11.70
2011,08,18,03,10,11.70
2011,08,18,03,11,11.70
2011,08,18,03,12,11.70
2011,08,18,03,13,11.70
2011,08,18,03,14,11.70
2011,08,18,03,15,11.70
2011,08,18,03,16,11.70
2011,08,18,03,17,11.70
2011,08,18,03,18,11.70
2011,08,18,03,19,11.70
2011,08,18,03,20,11.70
2011,08,18,03,21,11.60
2011,08,18,03,22,11.60
2011,08,18,03,23,11.60
2011,08,18,03,24,11.60
2011,08,18,03,25,11.60
2011,08,18,03,26,11.60
2011,08,18,03,27,11.60
2011,08,18,03,28,11.50
2011,08,18,03,29,11.50
2011,08,18,03,30,11.50
2011,08,18,03,31,11.50
2011,08,18,03,32,11.50
2011,08,18,03,33,11.50
2011,08,18,03,34,11.50
2011,08,18,03,35,11.40
2011,08,18,03,36,11.40
2011,08,18,03,37,11.40
2011,08,18,03,38,11.40
2011,08,18,03,39,11.40
2011,08,18,03,40,11.40
2011,08,18,03,41,11.40
2011,08,18,03,42,11.40
2011,08,18,03,43,11.40
2011,08,18,03,44,11.30
2011,08,18,03,45,11.30
2011,08,18,03,46,11.30
2011,08,18,03,47,11.30
2011,08,18,03,48,11.30
2011,08,18,03,49,11.30
2011,08,18,03,50,11.30
2011,08,18,03,51,11.30
2011,08,18,03,52,11.30
2011,08,18,03,53,11.30
2011,08,18,03,54,11.30
2011,08,18,03,55,11.30
2011,08,18,03,56,11.20
2011,08,18,03,57,11.20
2011,08,18,03,58,11.20
2011,08,18,03,59,11.20
2011,08,18,04,00,11.20
2011,08,18,04,01,11.20
2011,08,18,04,02,11.20
2011,08,18,04,03,11.20
2011,08,18,04,04,11.20
2011,08,18,04,05,11.20
2011,08,18,04,06,11.10
2011,08,18,04,07,11.10
2011,08,18,04,08,11.10
2011,08,18,04,09,11.10
2011,08,18,04,10,11.10
2011,08,18,04,11,11.10
2011,08,18,04,12,11.10
2011,08,18,04,13,11.10
2011,08,18,04,14,11.10
2011,08,18,04,15,11.10
2011,08,18,04,16,11.10
2011,08,18,04,17,11.00
2011,08,18,04,18,11.10
2011,08,18,04,19,11.10
2011,08,18,04,20,11.10
2011,08,18,04,21,11.00
2011,08,18,04,22,11.00
2011,08,18,04,23,11.10
2011,08,18,04,24,11.00
2011,08,18,04,25,11.10
2011,08,18,04,26,11.10
2011,08,18,04,27,11.10
2011,08,18,04,28,11.10
2011,08,18,04,29,11.10
2011,08,18,04,30,11.10
2011,08,18,04,31,11.10
2011,08,18,04,32,11.10
2011,08,18,04,33,11.10
2011,08,18,04,34,11.10
2011,08,18,04,35,11.10
2011,08,18,04,36,11.10
2011,08,18,04,37,11.10
2011,08,18,04,38,11.10
2011,08,18,04,39,11.10
2011,08,18,04,40,11.10
2011,08,18,04,41,11.10
2011,08,18,04,42,11.10
2011,08,18,04,43,11.10
2011,08,18,04,44,11.10
2011,08,18,04,45,11.10
2011,08,18,04,46,11.10
2011,08,18,04,47,11.10
2011,08,18,04,48,11.10
2011,08,18,04,49,11.10
2011,08,18,04,50,11.10
2011,08,18,04,51,11.10
2011,08,18,04,52,11.20
2011,08,18,04,53,11.20
2011,08,18,04,54,11.20
2011,08,18,04,55,11.20
2011,08,18,04,56,11.20
2011,08,18,04,57,11.20
2011,08,18,04,58,11.20
2011,08,18,04,59,11.20
2011,08,18,05,00,11.20
2011,08,18,05,01,11.30
2011,08,18,05,02,11.30
2011,08,18,05,03,11.30
2011,08,18,05,04,11.30
2011,08,18,05,05,11.30
2011,08,18,05,06,11.30
2011,08,18,05,07,11.30
2011,08,18,05,08,11.40
2011,08,18,05,09,11.40
2011,08,18,05,10,11.40
2011,08,18,05,11,11.40
2011,08,18,05,12,11.50
2011,08,18,05,13,11.50
2011,08,18,05,14,11.50
2011,08,18,05,15,11.50
2011,08,18,05,16,11.50
2011,08,18,05,17,11.60
2011,08,18,05,18,11.60
2011,08,18,05,19,11.60
2011,08,18,05,20,11.60
2011,08,18,05,21,11.60
2011,08,18,05,22,11.60
2011,08,18,05,23,11.60
2011,08,18,05,24,11.60
2011,08,18,05,25,11.60
2011,08,18,05,26,11.60
2011,08,18,05,27,11.60
2011,08,18,05,28,11.60
2011,08,18,05,29,11.60
2011,08,18,05,30,11.60
2011,08,18,05,31,11.60
2011,08,18,05,32,11.60
2011,08,18,05,33,11.60
2011,08,18,05,34,11.60
2011,08,18,05,35,11.60
2011,08,18,05,36,11.60
2011,08,18,05,37,11.60
2011,08,18,05,38,11.70
2011,08,18,05,39,11.70
2011,08,18,05,40,11.70
2011,08,18,05,41,11.70
2011,08,18,05,42,11.70
2011,08,18,05,43,11.70
2011,08,18,05,44,11.70
2011,08,18,05,45,11.70
2011,08,18,05,46,11.70
2011,08,18,05,47,11.70
2011,08,18,05,48,11.70
2011,08,18,05,49,11.70
2011,08,18,05,50,11.70
2011,08,18,05,51,11.70
2011,08,18,05,52,11.70
2011,08,18,05,53,11.70
2011,08,18,05,54,11.70
2011,08,18,05,55,11.70
2011,08,18,05,56,11.70
2011,08,18,05,57,11.70
2011,08,18,05,58,11.70
2011,08,18,05,59,11.70
2011,08,18,06,00,11.70
2011,08,18,06,01,11.70
2011,08,18,06,02,11.70
2011,08,18,06,03,11.70
2011,08,18,06,04,11.70
2011,08,18,06,05,11.70
2011,08,18,06,06,11.70
2011,08,18,06,07,11.70
2011,08,18,06,08,11.70
2011,08,18,06,09,11.70
2011,08,18,06,10,11.70
2011,08,18,06,11,11.70
2011,08,18,06,12,11.80
2011,08,18,06,13,11.80
2011,08,18,06,14,11.80
2011,08,18,06,15,11.80
2011,08,18,06,16,11.80
2011,08,18,06,17,11.80
2011,08,18,06,18,11.80
2011,08,18,06,19,11.80
2011,08,18,06,20,11.80
2011,08,18,06,21,11.80
2011,08,18,06,22,11.80
2011,08,18,06,23,11.80
2011,08,18,06,24,11.80
2011,08,18,06,25,11.80
2011,08,18,06,26,11.80
2011,08,18,06,27,11.80
2011,08,18,06,28,11.80
2011,08,18,06,29,11.80
2011,08,18,06,30,11.80
2011,08,18,06,31,11.80
2011,08,18,06,32,11.80
2011,08,18,06,33,11.80
2011,08,18,06,34,11.80
2011,08,18,06,35,11.80
2011,08,18,06,36,11.80
2011,08,18,06,37,11.90
2011,08,18,06,38,11.90
2011,08,18,06,39,11.90
2011,08,18,06,40,11.90
2011,08,18,06,41,11.90
2011,08,18,06,42,11.90
2011,08,18,06,43,11.90
2011,08,18,06,44,11.90
2011,08,18,06,45,11.90
2011,08,18,06,46,11.90
2011,08,18,06,47,12.00
2011,08,18,06,48,12.00
2011,08,18,06,49,12.00
2011,08,18,06,50,12.00
2011,08,18,06,51,12.00
2011,08,18,06,52,12.00
2011,08,18,06,53,12.10
2011,08,18,06,54,12.10
2011,08,18,06,55,12.10
2011,08,18,06,56,12.10
2011,08,18,06,57,12.10
2011,08,18,06,58,12.10
2011,08,18,06,59,12.10
2011,08,18,07,00,12.10
2011,08,18,07,01,12.10
2011,08,18,07,02,12.20
2011,08,18,07,03,12.20
2011,08,18,07,04,12.20
2011,08,18,07,05,12.20
2011,08,18,07,06,12.20
2011,08,18,07,07,12.20
2011,08,18,07,08,12.20
2011,08,18,07,09,12.30
2011,08,18,07,10,12.30
2011,08,18,07,11,12.30
2011,08,18,07,12,12.30
2011,08,18,07,13,12.30
2011,08,18,07,14,12.30
2011,08,18,07,15,12.30
2011,08,18,07,16,12.30
2011,08,18,07,17,12.40
2011,08,18,07,18,12.40
2011,08,18,07,19,12.40
2011,08,18,07,20,12.40
2011,08,18,07,21,12.40
2011,08,18,07,22,12.50
2011,08,18,07,23,12.50
2011,08,18,07,24,12.50
2011,08,18,07,25,12.60
2011,08,18,07,26,12.60
2011,08,18,07,27,12.60
2011,08,18,07,28,12.60
2011,08,18,07,29,12.60
2011,08,18,07,30,12.60
2011,08,18,07,31,12.60
2011,08,18,07,32,12.70
2011,08,18,07,33,12.70
2011,08,18,07,34,12.70
2011,08,18,07,35,12.70
2011,08,18,07,36,12.70
2011,08,18,07,37,12.70
2011,08,18,07,38,12.70
2011,08,18,07,39,12.80
2011,08,18,07,40,12.80
2011,08,18,07,41,12.80
2011,08,18,07,42,12.80
2011,08,18,07,43,12.80
2011,08,18,07,44,12.80
2011,08,18,07,45,12.80
2011,08,18,07,46,12.80
2011,08,18,07,47,12.80
2011,08,18,07,48,12.90
2011,08,18,07,49,12.90
2011,08,18,07,50,12.90
2011,08,18,07,51,12.90
2011,08,18,07,52,12.90
2011,08,18,07,53,12.90
2011,08,18,07,54,12.90
2011,08,18,07,55,13.00
2011,08,18,07,56,13.00
2011,08,18,07,57,13.00
2011,08,18,07,58,13.10
2011,08,18,07,59,13.10
2011,08,18,08,00,13.10
2011,08,18,08,01,13.10
2011,08,18,08,02,13.20
2011,08,18,08,03,13.20
2011,08,18,08,04,13.20
2011,08,18,08,05,13.20
2011,08,18,08,06,13.30
2011,08,18,08,07,13.30
2011,08,18,08,08,13.30
2011,08,18,08,09,13.30
2011,08,18,08,10,13.40
2011,08,18,08,11,13.40
2011,08,18,08,12,13.40
2011,08,18,08,13,13.50
2011,08,18,08,14,13.50
2011,08,18,08,15,13.50
2011,08,18,08,16,13.60
2011,08,18,08,17,13.60
2011,08,18,08,18,13.70
2011,08,18,08,19,13.70
2011,08,18,08,20,13.70
2011,08,18,08,21,13.70
2011,08,18,08,22,13.70
2011,08,18,08,23,13.70
2011,08,18,08,24,13.70
2011,08,18,08,25,13.70
2011,08,18,08,26,13.70
2011,08,18,08,27,13.90
2011,08,18,08,28,13.90
2011,08,18,08,29,13.90
2011,08,18,08,30,13.90
2011,08,18,08,31,14.00
2011,08,18,08,32,14.00
2011,08,18,08,33,14.10
2011,08,18,08,34,14.10
2011,08,18,08,35,14.10
2011,08,18,08,36,14.10
2011,08,18,08,37,14.20
2011,08,18,08,38,14.20
2011,08,18,08,39,14.20
2011,08,18,08,40,14.20
2011,08,18,08,41,14.30
2011,08,18,08,42,14.30
2011,08,18,08,43,14.30
2011,08,18,08,44,14.30
2011,08,18,08,45,14.40
2011,08,18,08,46,14.40
2011,08,18,08,47,14.40
2011,08,18,08,48,14.40
2011,08,18,08,49,14.50
2011,08,18,08,50,14.50
2011,08,18,08,51,14.50
2011,08,18,08,52,14.60
2011,08,18,08,53,14.60
2011,08,18,08,54,14.60
2011,08,18,08,55,14.60
2011,08,18,08,56,14.60
2011,08,18,08,57,14.60
2011,08,18,08,58,14.60
2011,08,18,08,59,14.80
2011,08,18,09,00,14.80
2011,08,18,09,01,14.80
2011,08,18,09,02,14.90
2011,08,18,09,03,14.90
2011,08,18,09,04,14.90
2011,08,18,09,05,15.00
2011,08,18,09,06,15.10
2011,08,18,09,07,15.10
2011,08,18,09,08,15.10
2011,08,18,09,09,15.10
2011,08,18,09,10,15.10
2011,08,18,09,11,15.10
2011,08,18,09,12,15.20
2011,08,18,09,13,15.20
2011,08,18,09,14,15.30
2011,08,18,09,15,15.30
2011,08,18,09,16,15.40
2011,08,18,09,17,15.40
2011,08,18,09,18,15.40
2011,08,18,09,19,15.40
2011,08,18,09,20,15.50
2011,08,18,09,21,15.50
2011,08,18,09,22,15.60
2011,08,18,09,23,15.60
2011,08,18,09,24,15.60
2011,08,18,09,25,15.70
2011,08,18,09,26,15.70
2011,08,18,09,27,15.70
2011,08,18,09,28,15.70
2011,08,18,09,29,15.80
2011,08,18,09,30,15.80
2011,08,18,09,31,15.80
2011,08,18,09,32,15.70
2011,08,18,09,33,15.70
2011,08,18,09,34,15.80
2011,08,18,09,35,15.80
2011,08,18,09,36,15.80
2011,08,18,09,37,15.90
2011,08,18,09,38,15.90
2011,08,18,09,39,16.00
2011,08,18,09,40,16.00
2011,08,18,09,41,16.10
2011,08,18,09,42,16.10
2011,08,18,09,43,16.10
2011,08,18,09,44,16.10
2011,08,18,09,45,16.10
2011,08,18,09,46,16.10
2011,08,18,09,47,16.20
2011,08,18,09,48,16.20
2011,08,18,09,49,16.30
2011,08,18,09,50,16.30
2011,08,18,09,51,16.40
2011,08,18,09,52,16.40
2011,08,18,09,53,16.40
2011,08,18,09,54,16.40
2011,08,18,09,55,16.40
2011,08,18,09,56,16.50
2011,08,18,09,57,16.50
2011,08,18,09,58,16.50
2011,08,18,09,59,16.60
2011,08,18,10,00,16.60
2011,08,18,10,01,16.60
2011,08,18,10,02,16.60
2011,08,18,10,03,16.70
2011,08,18,10,04,16.70
2011,08,18,10,05,16.80
2011,08,18,10,06,16.80
2011,08,18,10,07,16.80
2011,08,18,10,08,16.90
2011,08,18,10,09,17.00
2011,08,18,10,10,17.00
2011,08,18,10,11,17.10
2011,08,18,10,12,17.20
2011,08,18,10,13,17.20
2011,08,18,10,14,17.20
2011,08,18,10,15,17.30
2011,08,18,10,16,17.30
2011,08,18,10,17,17.30
2011,08,18,10,18,17.30
2011,08,18,10,19,17.30
2011,08,18,10,20,17.40
2011,08,18,10,21,17.40
2011,08,18,10,22,17.50
2011,08,18,10,23,17.60
2011,08,18,10,24,17.60
2011,08,18,10,25,17.70
2011,08,18,10,26,17.80
2011,08,18,10,27,17.80
2011,08,18,10,28,17.80
2011,08,18,10,29,17.80
2011,08,18,10,30,17.80
2011,08,18,10,31,17.80
2011,08,18,10,32,17.70
2011,08,18,10,33,17.70
2011,08,18,10,34,17.70
2011,08,18,10,35,17.80
2011,08,18,10,36,17.80
2011,08,18,10,37,17.80
2011,08,18,10,38,17.80
2011,08,18,10,39,17.90
2011,08,18,10,40,17.90
2011,08,18,10,41,17.90
2011,08,18,10,42,18.00
2011,08,18,10,43,18.00
2011,08,18,10,44,18.00
2011,08,18,10,45,18.00
2011,08,18,10,46,18.10
2011,08,18,10,47,18.20
2011,08,18,10,48,18.20
2011,08,18,10,49,18.30
2011,08,18,10,50,18.30
2011,08,18,10,51,18.30
2011,08,18,10,52,18.30
2011,08,18,10,53,18.30
2011,08,18,10,54,18.40
2011,08,18,10,55,18.40
2011,08,18,10,56,18.40
2011,08,18,10,57,18.40
2011,08,18,10,58,18.50
2011,08,18,10,59,18.50
2011,08,18,11,00,18.60
2011,08,18,11,01,18.60
2011,08,18,11,02,18.60
2011,08,18,11,03,18.60
2011,08,18,11,04,18.60
2011,08,18,11,05,18.50
2011,08,18,11,06,18.50
2011,08,18,11,07,18.60
2011,08,18,11,08,18.70
2011,08,18,11,09,18.70
2011,08,18,11,10,18.80
2011,08,18,11,11,18.80
2011,08,18,11,12,18.80
2011,08,18,11,13,18.90
2011,08,18,11,14,18.90
2011,08,18,11,15,19.00
2011,08,18,11,16,19.00
2011,08,18,11,17,19.10
2011,08,18,11,18,19.10
2011,08,18,11,19,19.20
2011,08,18,11,20,19.20
2011,08,18,11,21,19.30
2011,08,18,11,22,19.40
2011,08,18,11,23,19.40
2011,08,18,11,24,19.40
2011,08,18,11,25,19.50
2011,08,18,11,26,19.60
2011,08,18,11,27,19.60
2011,08,18,11,28,19.60
2011,08,18,11,29,19.60
2011,08,18,11,30,19.70
2011,08,18,11,31,19.70
2011,08,18,11,32,19.70
2011,08,18,11,33,19.70
2011,08,18,11,34,19.80
2011,08,18,11,35,19.90
2011,08,18,11,36,19.90
2011,08,18,11,37,20.00
2011,08,18,11,38,20.00
2011,08,18,11,39,20.00
2011,08,18,11,40,20.00
2011,08,18,11,41,20.00
2011,08,18,11,42,20.10
2011,08,18,11,43,20.10
2011,08,18,11,44,20.10
2011,08,18,11,45,20.20
2011,08,18,11,46,20.20
2011,08,18,11,47,20.30
2011,08,18,11,48,20.40
2011,08,18,11,49,20.50
2011,08,18,11,50,20.60
2011,08,18,11,51,20.70
2011,08,18,11,52,20.70
2011,08,18,11,53,20.80
2011,08,18,11,54,20.80
2011,08,18,11,55,20.90
2011,08,18,11,56,20.90
2011,08,18,11,57,21.00
2011,08,18,11,58,20.90
2011,08,18,11,59,21.00
2011,08,18,12,00,21.00
2011,08,18,12,01,21.10
2011,08,18,12,02,21.10
2011,08,18,12,03,21.20
2011,08,18,12,04,21.20
2011,08,18,12,05,21.30
2011,08,18,12,06,21.40
2011,08,18,12,07,21.50
2011,08,18,12,08,21.50
2011,08,18,12,09,21.60
2011,08,18,12,10,21.50
2011,08,18,12,11,21.50
2011,08,18,12,12,21.40
2011,08,18,12,13,21.40
2011,08,18,12,14,21.40
2011,08,18,12,15,21.40
2011,08,18,12,16,21.50
2011,08,18,12,17,21.50
2011,08,18,12,18,21.60
2011,08,18,12,19,21.70
2011,08,18,12,20,21.80
2011,08,18,12,21,21.90
2011,08,18,12,22,22.00
2011,08,18,12,23,22.10
2011,08,18,12,24,22.10
2011,08,18,12,25,22.10
2011,08,18,12,26,22.10
2011,08,18,12,27,22.10
2011,08,18,12,28,22.10
2011,08,18,12,29,22.20
2011,08,18,12,30,22.30
2011,08,18,12,31,22.40
2011,08,18,12,32,22.50
2011,08,18,12,33,22.50
2011,08,18,12,34,22.50
2011,08,18,12,35,22.60
2011,08,18,12,36,22.60
2011,08,18,12,37,22.70
2011,08,18,12,38,22.70
2011,08,18,12,39,22.70
2011,08,18,12,40,22.70
2011,08,18,12,41,22.70
2011,08,18,12,42,22.70
2011,08,18,12,43,22.80
2011,08,18,12,44,22.80
2011,08,18,12,45,22.80
2011,08,18,12,46,22.70
2011,08,18,12,47,22.60
2011,08,18,12,48,22.50
2011,08,18,12,49,22.50
2011,08,18,12,50,22.50
2011,08,18,12,51,22.50
2011,08,18,12,52,22.50
2011,08,18,12,53,22.60
2011,08,18,12,54,22.60
2011,08,18,12,55,22.60
2011,08,18,12,56,22.70
2011,08,18,12,57,22.70
2011,08,18,12,58,22.80
2011,08,18,12,59,22.80
2011,08,18,13,00,22.80
2011,08,18,13,01,22.80
2011,08,18,13,02,22.90
2011,08,18,13,03,22.90
2011,08,18,13,04,23.00
2011,08,18,13,05,23.00
2011,08,18,13,06,23.10
2011,08,18,13,07,23.10
2011,08,18,13,08,23.10
2011,08,18,13,09,23.10
2011,08,18,13,10,23.10
2011,08,18,13,11,23.10
2011,08,18,13,12,23.00
2011,08,18,13,13,23.00
2011,08,18,13,14,23.00
2011,08,18,13,15,23.10
2011,08,18,13,16,23.10
2011,08,18,13,17,23.20
2011,08,18,13,18,23.30
2011,08,18,13,19,23.30
2011,08,18,13,20,23.40
2011,08,18,13,21,23.40
2011,08,18,13,22,23.40
2011,08,18,13,23,23.50
2011,08,18,13,24,23.60
2011,08,18,13,25,23.60
2011,08,18,13,26,23.60
2011,08,18,13,27,23.60
2011,08,18,13,28,23.60
2011,08,18,13,29,23.70
2011,08,18,13,30,23.60
2011,08,18,13,31,23.60
2011,08,18,13,32,23.60
2011,08,18,13,33,23.60
2011,08,18,13,34,23.60
2011,08,18,13,35,23.70
2011,08,18,13,36,23.70
2011,08,18,13,37,23.80
2011,08,18,13,38,23.80
2011,08,18,13,39,23.80
2011,08,18,13,40,23.80
2011,08,18,13,41,23.80
2011,08,18,13,42,23.90
2011,08,18,13,43,24.00
2011,08,18,13,44,24.10
2011,08,18,13,45,24.20
2011,08,18,13,46,24.30
2011,08,18,13,47,24.30
2011,08,18,13,48,24.30
2011,08,18,13,49,24.20
2011,08,18,13,50,24.20
2011,08,18,13,51,24.20
2011,08,18,13,52,24.30
2011,08,18,13,53,24.30
2011,08,18,13,54,24.30
2011,08,18,13,55,24.30
2011,08,18,13,56,24.30
2011,08,18,13,57,24.20
2011,08,18,13,58,24.20
2011,08,18,13,59,24.30
2011,08,18,14,00,24.30
2011,08,18,14,01,24.30
2011,08,18,14,02,24.20
2011,08,18,14,03,24.20
2011,08,18,14,04,24.10
2011,08,18,14,05,24.10
2011,08,18,14,06,24.00
2011,08,18,14,07,24.00
2011,08,18,14,08,24.00
2011,08,18,14,09,23.90
2011,08,18,14,10,23.90
2011,08,18,14,11,23.90
2011,08,18,14,12,23.80
2011,08,18,14,13,23.80
2011,08,18,14,14,23.90
2011,08,18,14,15,24.00
2011,08,18,14,16,24.00
2011,08,18,14,17,23.90
2011,08,18,14,18,23.90
2011,08,18,14,19,23.90
2011,08,18,14,20,23.90
2011,08,18,14,21,23.90
2011,08,18,14,22,23.90
2011,08,18,14,23,23.80
2011,08,18,14,24,23.80
2011,08,18,14,25,23.80
2011,08,18,14,26,23.80
2011,08,18,14,27,23.80
2011,08,18,14,28,23.90
2011,08,18,14,29,23.90
2011,08,18,14,30,24.00
2011,08,18,14,31,24.10
2011,08,18,14,32,24.20
2011,08,18,14,33,24.30
2011,08,18,14,34,24.30
2011,08,18,14,35,24.30
2011,08,18,14,36,24.30
2011,08,18,14,37,24.30
2011,08,18,14,38,24.30
2011,08,18,14,39,24.30
2011,08,18,14,40,24.40
2011,08,18,14,41,24.30
2011,08,18,14,42,24.20
2011,08,18,14,43,24.20
2011,08,18,14,44,24.20
2011,08,18,14,45,24.30
2011,08,18,14,46,24.30
2011,08,18,14,47,24.30
2011,08,18,14,48,24.30
2011,08,18,14,49,24.30
2011,08,18,14,50,24.40
2011,08,18,14,51,24.40
2011,08,18,14,52,24.40
2011,08,18,14,53,24.40
2011,08,18,14,54,24.40
2011,08,18,14,55,24.40
2011,08,18,14,56,24.40
2011,08,18,14,57,24.40
2011,08,18,14,58,24.50
2011,08,18,14,59,24.50
2011,08,18,15,00,24.50
2011,08,18,15,01,24.50
2011,08,18,15,02,24.50
2011,08,18,15,03,24.60
2011,08,18,15,04,24.60
2011,08,18,15,05,24.50
2011,08,18,15,06,24.40
2011,08,18,15,07,24.30
2011,08,18,15,08,24.30
2011,08,18,15,09,24.30
2011,08,18,15,10,24.40
2011,08,18,15,11,24.50
2011,08,18,15,12,24.60
2011,08,18,15,13,24.60
2011,08,18,15,14,24.60
2011,08,18,15,15,24.70
2011,08,18,15,16,24.70
2011,08,18,15,17,24.60
2011,08,18,15,18,24.60
2011,08,18,15,19,24.60
2011,08,18,15,20,24.50
2011,08,18,15,21,24.50
2011,08,18,15,22,24.60
2011,08,18,15,23,24.60
2011,08,18,15,24,24.60
2011,08,18,15,25,24.60
2011,08,18,15,26,24.70
2011,08,18,15,27,24.70
2011,08,18,15,28,24.60
2011,08,18,15,29,24.50
2011,08,18,15,30,24.40
2011,08,18,15,31,24.40
2011,08,18,15,32,24.40
2011,08,18,15,33,24.50
2011,08,18,15,34,24.50
2011,08,18,15,35,24.60
2011,08,18,15,36,24.60
2011,08,18,15,37,24.70
2011,08,18,15,38,24.60
2011,08,18,15,39,24.60
2011,08,18,15,40,24.70
2011,08,18,15,41,24.70
2011,08,18,15,42,24.70
2011,08,18,15,43,24.70
2011,08,18,15,44,24.70
2011,08,18,15,45,24.70
2011,08,18,15,46,24.70
2011,08,18,15,47,24.70
2011,08,18,15,48,24.70
2011,08,18,15,49,24.60
2011,08,18,15,50,24.60
2011,08,18,15,51,24.50
2011,08,18,15,52,24.40
2011,08,18,15,53,24.40
2011,08,18,15,54,24.40
2011,08,18,15,55,24.40
2011,08,18,15,56,24.30
2011,08,18,15,57,24.20
2011,08,18,15,58,24.10
2011,08,18,15,59,24.10
2011,08,18,16,00,24.10
2011,08,18,16,01,24.10
2011,08,18,16,02,24.10
2011,08,18,16,03,24.00
2011,08,18,16,04,23.90
2011,08,18,16,05,23.90
2011,08,18,16,06,23.90
2011,08,18,16,07,23.90
2011,08,18,16,08,23.90
2011,08,18,16,09,23.90
2011,08,18,16,10,23.80
2011,08,18,16,11,23.80
2011,08,18,16,12,23.80
2011,08,18,16,13,23.90
2011,08,18,16,14,23.90
2011,08,18,16,15,24.00
2011,08,18,16,16,24.10
2011,08,18,16,17,24.10
2011,08,18,16,18,24.10
2011,08,18,16,19,24.10
2011,08,18,16,20,24.10
2011,08,18,16,21,24.10
2011,08,18,16,22,24.00
2011,08,18,16,23,23.90
2011,08,18,16,24,23.90
2011,08,18,16,25,24.00
2011,08,18,16,26,24.10
2011,08,18,16,27,24.10
2011,08,18,16,28,24.10
2011,08,18,16,29,24.10
2011,08,18,16,30,24.00
2011,08,18,16,31,23.90
2011,08,18,16,32,23.90
2011,08,18,16,33,23.80
2011,08,18,16,34,23.70
2011,08,18,16,35,23.70
2011,08,18,16,36,23.60
2011,08,18,16,37,23.60
2011,08,18,16,38,23.60
2011,08,18,16,39,23.60
2011,08,18,16,40,23.60
2011,08,18,16,41,23.60
2011,08,18,16,42,23.60
2011,08,18,16,43,23.70
2011,08,18,16,44,23.70
2011,08,18,16,45,23.70
2011,08,18,16,46,23.80
2011,08,18,16,47,23.80
2011,08,18,16,48,23.80
2011,08,18,16,49,23.80
2011,08,18,16,50,23.80
2011,08,18,16,51,23.90
2011,08,18,16,52,24.00
2011,08,18,16,53,24.00
2011,08,18,16,54,24.10
2011,08,18,16,55,24.10
2011,08,18,16,56,24.10
2011,08,18,16,57,24.20
2011,08,18,16,58,24.10
2011,08,18,16,59,24.10
2011,08,18,17,00,24.10
2011,08,18,17,01,24.10
2011,08,18,17,02,24.10
2011,08,18,17,03,24.20
2011,08,18,17,04,24.30
2011,08,18,17,05,24.30
2011,08,18,17,06,24.30
2011,08,18,17,07,24.20
2011,08,18,17,08,24.10
2011,08,18,17,09,24.00
2011,08,18,17,10,23.90
2011,08,18,17,11,23.90
2011,08,18,17,12,23.80
2011,08,18,17,13,23.70
2011,08,18,17,14,23.60
2011,08,18,17,15,23.60
2011,08,18,17,16,23.60
2011,08,18,17,17,23.50
2011,08,18,17,18,23.50
2011,08,18,17,19,23.50